DELTA 1 DEB, 3123

Orbit data source: Space-Track

DELTA 1 DEB, 3123 is space debris in SSO originally from a launch on Fri, 10 Nov 1967 UTC launched from the Air Force Western Test Range (AFWTR). Debris objects in space refer to the collection of defunct objects orbiting the Earth. Examples of debris include non-operational satellites, rocket bodies, and fragments generated from explosions, collisions, or faulty payload assembly.

Loading next visibility...
Identifier
3123, 1967-114D
Orbit
SSO
Last TLE update
18 hours ago
Origin
Manufacturer
Unknown
Mission
Spacecraft
Bus & Motor
Unknown
Mass
Unknown
Launch date (UTC)
1967-11-10 (58 years ago)
Launch vehicle
Unknown
Launch site
Air Force Western Test Range (AFWTR)
Object type
Payload
Rocket body
Debris
Shape & HBR
Unknown
Radar Cross Section
Small (<0.1 m²)

Expand to show TLE details & history

TLE from 18 hours ago
0 DELTA 1 DEB
1  3123U 67114D   25189.57307035 -.00000052  00000-0 -26333-4 0  9993
2  3123 102.4306 306.5706 0028501 175.8727 215.7434 12.48092162626631
Epoch: 2025-07-08T13:45Z
TLE epoch observation values (Epoch: 2025-07-08T13:45:13.278Z)
Latitude
30.66057°
Longitude
166.0276°
Altitude
1,494.223 km
Speed
7.111 km/s
True Right ascension
19h 56m 23s
True Declination
30° 31' 27"
Sunlit
Object was in partial shadow at epoch
Visualization orbit readout
Latitude
73.94683°
Longitude
124.59218°
Altitude
1,486.831 km
Speed
7.126 km/s
Apparent Right ascension
08h 55m 59s
Apparent Declination
46° 02' 32"
Sunlit
Object is in daylight
Visualization observer readout
Local Sidereal Time
19:29:01
Azimuth
345.092° N
Elevation
-1.869°
Doppler factor
1
Orbital elements
Apogee altitude
1,492.444 km
Perigee altitude
1,447.707 km
Semi-major axis
7,848.212 km
Eccentricity
0.00285
Inclination
102.4306°
RAAN
306.5706°
Arg. of periapsis
175.8727°
True anomaly
Unknown
Mean anomaly
215.7434°
Eccentric anomaly
Unknown
Mean motion
3.12167 °/min
Orbital period
115.32 mins
BSTAR
-0.000026333
Loading maneuver chart data...
Loading SW <> Apogee altitude chart data...
Loading historical data...
Loading historical data...
Loading historical data...
Loading historical data...
Loading historical data...
Loading historical data...
Loading historical data...
Other satellites on launch #114 in the year 1967 (1967-11-10 UTC)

DELTA 1 DEB Visibility forecast

Observer location: undefined°, undefined°

Span
Click to sort rows by Start time (UTC) header in descending order
Start Az.
Max El. time (UTC)
Max El. Az.
Max El.
End time (UTC)
End Az.
13 mins2025-07-09 08:54:32.425Z207.274° SW2025-07-09 09:01:32.425Z265.223° W25.813°2025-07-09 09:07:32.425Z316.271° NNW
9 mins2025-07-09 19:08:32.425Z61.27° ENE2025-07-09 19:12:32.425Z94.274° ESE17.694°2025-07-09 19:17:32.425Z132.788° SE
15 mins2025-07-09 20:59:32.425Z17.13° NNE2025-07-09 21:06:32.425Z255.677° W44.898°2025-07-09 21:14:32.425Z202.817° SW
9 mins2025-07-09 22:54:32.425Z342.083° N2025-07-09 22:58:32.425Z308.265° NW19.198°2025-07-09 23:03:32.425Z269.122° W
13 mins2025-07-10 06:08:32.425Z109.462° ESE2025-07-10 06:14:32.425Z56.154° ENE27.781°2025-07-10 06:21:32.425Z359.113° N
|